User: anonymous   Login
Location: Stendal
(52.5994°N, 11.8400°E)
Time: 20:47:12
(UTC+01:00)
Language:

Cosmos 858 - Orbit

View from above orbital plane
View from above orbital plane
View from above satellite
View from above satellite

Ground track
Ground track

The orbit data is extracted from the following two-line orbital elements,

1 09443U 76098A   22024.57804607  .00000045  00000-0  25223-4 0  9994
2 09443  74.0477 214.9071 0013802   5.2769 354.8525 14.34209946368649
Epoch (UTC): 24 January 2022 13:52:23
Eccentricity: 0.0013802
inclination: 74.0477°
perigee height: 768 km
apogee height: 787 km
right ascension of ascending node: 214.9071°
argument of perigee: 5.2769°
revolutions per day: 14.34209946
mean anomaly at epoch: 354.8525°
orbit number at epoch: 36864

The dashed part of the orbit path shows where the satellite is in the earth's shadow,  

DLR